Showing default

GJZ 02, 62291

Orbit data source: Space-Track

GJZ 02, 62291 is a payload satellite owned by CASC (CN) in LEO that was launched on Thu, 12 Dec 2024 UTC via a CHANG ZHENG 2D/YZ-3 launch vehicle from the Jiuquan Satellite Launch Center, China (JSC). Payload-class satellites include a variety of spacecraft equipped with specific instruments for various scientific and technological missions. These include communications satellites like Starlink; space stations such as the ISS; scientific satellites like the Hubble; Earth observation satellites from companies like Planet Labs, Umbra, and HawkEye 360; GPS; miniature CubeSats for education and research; and military/defense satellites.

Loading next visibility...
Identifier
62291, 2024-238B
Orbit
LEO
Country
Flag of CNCN / PRC
Related business
Manufacturer
HITSAT
Mission
Operational Civil Communications
Bus & Motor
HARBFLAT, Unknown motor
Mass
~150 kg wet, ~150 kg dry
Launch date (UTC)
2024-12-12 (11 months ago)
Launch vehicle
CHANG ZHENG 2D/YZ-3
Launch site
Jiuquan Satellite Launch Center, China (JSC)
Object type
Payload
Rocket body
Debris
Shape & HBR
Box + 2 Pan, 1.5 m
Radar Cross Section
0.240 m², Large (>1 m²)

Expand to show TLE details & history
Last TLE update: 13 hours ago

TLE from 13 hours ago
0 GJZ 02
1 62291U 24238B   25305.62887642  .00000020  00000-0  14493-3 0  9993
2 62291  59.9174 219.4285 0009036  93.1010 267.1032 13.75159403 44984
Epoch: 2025-11-01T15:05Z
TLE epoch observation values (Epoch: 2025-11-01T15:05:34.922Z)
Latitude
-0.00002°
Longitude
-48.12324°
Altitude
982.934 km
Speed
7.361 km/s
True Right ascension
14h 37m 42s
True Declination
0° 00' 00"
Sunlit
Object was in daylight at epoch
Visualization orbit readout
Latitude
Unknown
Longitude
Unknown
Altitude
Unknown
Speed
Unknown
Apparent Right ascension
Unknown
Apparent Declination
Unknown
Sunlit
N/A
Visualization observer readout
Local Sidereal Time
23:23:02
Azimuth
Unknown
Elevation
Unknown
Doppler factor
Unknown
Orbital elements
Apogee altitude
987.023 km
Perigee altitude
973.725 km
Semi-major axis
7,358.511 km
Eccentricity
0.0009
Inclination
59.9174°
RAAN
219.4285°
Arg. of periapsis
93.101°
True anomaly
266.99979°
Mean anomaly
267.1032°
Eccentric anomaly
267.0515°
Mean motion
3.43841 °/min
Orbital period
104.7 mins
BSTAR
0.00014493
Loading maneuver chart data...
Computing Atmospheric mass density...
Loading historical data...
Loading historical data...
Loading historical data...
Loading historical data...
Loading historical data...
Loading historical data...
Loading historical data...
Other satellites on launch #238 in the year 2024 (2024-12-12 UTC)

Documentation

Showing up to 5 results
|